CAPE
0 0 0 0 0 0 0 0 0 0 0 1 1 2 1 1 1 1 1 1 2 2 2 2 1 1 1 3 3 2 1 2 4 0 0 9 33 11 39 17 1 4 1
0 0 0 0 0 0 0 0 0 0 0 0 1 1 2 2 2 2 2 2 2 2 1 0 1 1 1 1 1 1 1 0 2 2 1 0 0 1 0 1 2 2 2
0 0 0 0 0 0 0 0 0 0 0 0 0 1 1 1 1 2 1 0 1 2 0 1 1 1 1 0 1 1 1 1 2 2 1 2 23 0 0 2 2 2 0
1 0 0 0 0 0 0 0 0 0 0 0 0 1 1 1 2 1 1 3 1 1 1 0 0 0 1 0 1 1 1 2 2 5 0 3 0 1 1 0 1 2 0
0 0 0 0 0 1 2 0 0 0 0 0 0 0 0 1 1 1 1 2 1 1 1 2 1 3 4 1 1 0 2 2 3 2 0 4 2 0 0 2 2 2 2
0 0 0 0 0 6 0 0 0 0 0 0 0 0 0 0 0 0 0 1 1 1 1 1 2 2 1 1 2 2 1 0 0 0 0 4 7 1 1 1 2 2 1
0 0 0 0 0 0 0 0 0 0 0 0 0 0 0 0 0 0 0 0 0 0 1 0 1 1 1 1 1 0 0 0 1 1 1 0 0 1 0 1 2 1 0
0 0 0 0 0 0 0 0 0 0 0 0 0 0 0 0 0 0 0 0 0 0 0 0 0 0 1 0 0 0 0 0 0 0 0 0 1 0 0 0 0 0 1
0 0 0 0 0 0 0 0 0 0 0 0 0 0 0 0 0 0 0 0 0 0 0 0 0 0 0 0 1 0 0 0 0 0 0 0 0 0 0 0 2 0 1
0 0 0 0 0 0 0 0 0 0 0 0 0 0 0 0 0 0 0 0 0 0 0 0 0 0 0 0 0 0 2 5 1 0 0 0 0 0 0 0 0 0 0
0 0 0 0 0 0 0 0 0 0 0 0 0 0 0 0 0 0 0 0 0 0 0 0 0 0 0 0 0 0 0 0 0 0 1 0 1 0 0 0 0 0 0
0 0 0 0 0 0 0 0 0 0 0 0 0 0 0 0 0 0 0 0 0 1 0 0 0 3 2 0 0 0 0 0 0 2 3 3 2 2 3 4 0 0 0
0 0 0 0 0 0 0 0 0 0 0 0 0 0 0 0 0 0 0 0 0 0 1 0 0 0 0 0 0 0 0 0 0 0 0 0 1 0 0 4 10 0 0
0 0 0 0 0 0 0 0 0 0 0 0 0 0 0 0 0 0 0 0 0 0 0 0 0 0 0 0 0 0 0 0 0 0 0 0 0 0 0 0 0 3 0
0 0 0 0 0 0 0 0 0 0 0 0 0 0 0 0 0 0 0 0 0 0 0 0 0 0 0 0 0 0 0 0 0 0 0 0 0 0 0 0 0 0 0
0 0 0 0 0 0 0 0 0 0 0 0 0 0 0 0 0 0 0 0 0 0 0 1 1 2 2 1 1 1 0 0 0 0 0 0 0 0 0 0 0 0 0
0 0 0 0 0 0 0 0 0 0 0 0 0 0 0 0 0 0 0 0 0 0 0 0 1 1 2 2 2 2 1 1 0 0 0 0 0 0 0 0 0 0 0
0 0 0 0 0 0 0 0 0 0 0 0 0 0 0 0 0 0 0 0 0 0 0 0 0 0 0 1 1 1 1 0 0 1 0 0 0 0 0 0 0 0 0
0 0 0 0 0 0 0 0 0 0 0 0 0 0 0 0 0 0 0 0 0 0 0 0 0 0 1 1 1 1 1 1 1 1 1 1 0 0 0 0 0 0 0
0 0 0 0 0 0 0 0 0 0 0 0 0 0 0 0 0 0 0 0 0 0 0 0 0 1 1 2 1 1 0 0 0 1 1 2 0 0 0 0 1 0 0
0 0 0 0 0 0 0 0 0 0 0 0 0 0 0 0 0 0 0 0 0 0 0 0 1 1 3 0 2 1 1 0 0 0 1 1 0 0 0 0 0 0 0
0 0 0 0 0 0 0 0 0 0 0 0 0 0 0 0 0 0 0 0 0 0 0 1 2 4 4 1 2 1 1 1 1 0 0 1 0 1 0 0 0 0 0
0 0 0 0 0 0 0 0 0 0 0 0 0 0 0 0 0 0 0 0 1 2 2 3 3 4 2 1 2 2 2 1 1 0 0 1 0 1 0 0 0 0 0
0 0 0 0 0 0 0 0 0 0 0 0 0 0 0 0 0 0 0 0 1 4 1 5 1 1 2 2 2 2 2 1 0 0 0 0 1 0 0 0 0 0 0
0 0 0 0 0 0 0 0 0 0 0 0 0 0 0 0 0 0 0 3 3 3 2 2 2 1 2 1 1 1 0 0 0 0 0 0 0 0 0 0 0 0 0
0 0 0 0 0 0 0 0 0 0 0 0 0 0 1 0 0 1 1 2 2 2 2 2 2 2 2 1 0 0 0 0 0 0 0 0 0 0 0 0 0 0 0
CIN
0 0 0 0 0 0 0 0 0 0 0 0 0 0 0 0 0 0 0 0 0 0 0 0 0 0 0 0 0 0 0 0 0 0 0 -4 -26 -63 -97 -191 0 -252 -235
0 0 0 0 0 0 0 0 0 0 0 0 0 0 0 0 0 0 0 0 0 0 0 0 0 0 0 0 0 0 0 0 0 0 0 0 0 -101 0 0 0 0 0
-1 0 0 0 0 0 0 0 0 0 0 0 0 0 0 0 0 0 0 0 0 0 0 0 0 0 0 0 0 0 0 0 0 0 0 -3 -2 0 0 0 0 0 0
-1 0 0 0 0 0 -4 0 0 0 0 0 0 0 0 0 0 0 0 0 0 0 0 0 0 0 0 0 0 0 0 0 -12 -8 0 -36 0 0 0 0 0 0 0
0 0 0 0 0 -25 -13 0 0 0 0 0 0 0 0 0 0 0 0 0 0 0 0 0 0 0 0 0 0 0 0 0 -19 0 0 -9 -26 0 0 0 0 0 0
0 0 0 0 -2 -10 0 0 0 0 0 0 0 0 0 0 0 0 0 0 0 0 0 0 0 0 0 0 -77 0 0 0 0 0 0 -12 -21 -53 0 0 0 0 0
0 0 0 0 0 0 0 0 0 0 0 0 0 0 0 0 0 0 0 0 0 0 0 0 0 0 0 0 0 0 0 0 0 0 0 0 0 0 0 0 0 0 0
0 0 0 0 0 0 0 0 0 0 0 0 0 0 0 0 0 0 0 0 0 0 0 0 0 0 -5 0 0 0 0 0 0 0 0 0 0 0 0 0 0 0 0
0 0 0 0 0 0 0 0 0 0 0 0 0 0 0 0 0 0 0 0 0 0 0 0 0 0 0 -4 -4 0 0 0 0 0 0 0 0 0 0 0 0 0 0
0 0 0 0 0 0 0 0 0 0 0 0 0 0 0 0 0 0 0 0 0 -10 0 0 0 0 0 0 0 0 -4 -7 -10 -2 0 0 0 0 0 0 0 0 0
0 0 0 0 0 0 0 0 0 0 0 0 0 0 0 0 0 0 0 0 0 0 0 0 0 0 0 0 0 0 0 0 -8 -8 -7 -7 -11 0 -8 0 0 0 -14
0 0 0 0 0 0 0 0 0 0 0 0 0 0 0 0 0 0 0 -5 0 -31 0 0 -18 -29 -30 0 0 0 0 0 -8 -31 -24 -21 -24 -24 -27 -11 0 0 0
0 0 0 0 0 0 0 0 0 0 0 0 0 0 0 0 0 0 0 0 0 -14 -16 -6 -18 -1 0 0 0 0 0 0 0 0 0 -1 -23 0 -4 -24 -15 0 0
0 0 0 0 0 0 0 0 0 0 0 0 0 0 0 0 0 0 0 0 0 0 0 0 0 0 0 0 0 0 0 0 0 0 0 0 0 0 0 0 0 -10 0
0 0 0 0 0 0 0 0 0 0 0 0 0 0 0 0 0 0 0 0 0 0 0 0 0 0 0 0 0 0 0 0 0 0 0 0 0 0 0 0 0 0 0
0 0 0 0 0 0 0 0 0 0 0 0 0 0 0 0 0 0 0 0 0 0 0 0 0 0 0 0 0 0 0 0 0 0 0 0 0 0 0 0 0 0 0
0 0 0 0 0 0 0 0 0 0 0 0 0 0 0 0 0 0 0 0 0 0 0 0 0 0 0 0 0 0 0 0 0 0 0 0 0 0 0 0 0 0 0
0 0 0 0 0 0 0 0 0 0 0 0 0 0 0 0 0 0 0 0 0 0 0 0 0 -1 0 0 0 0 0 0 0 0 0 0 0 0 0 0 0 0 0
0 0 0 0 0 0 0 0 0 0 0 0 0 0 0 0 0 0 0 0 0 0 0 0 0 -3 0 -1 0 0 0 0 0 0 0 0 0 0 0 0 0 0 0
0 0 0 0 0 0 0 0 0 0 0 0 0 0 0 0 0 0 0 0 0 0 0 0 0 0 0 0 0 0 0 0 0 0 0 0 0 0 0 0 0 0 0
0 0 0 0 0 0 0 0 0 0 0 0 0 0 0 0 0 -1 0 -7 0 0 0 0 0 0 0 0 0 0 0 0 0 0 0 0 0 0 0 0 0 0 0
0 0 0 0 0 0 0 0 0 0 0 0 0 0 0 0 0 0 0 0 0 0 0 0 0 -1 0 0 0 0 0 0 0 0 0 0 0 0 0 0 0 0 0
0 0 0 0 0 0 0 0 0 0 0 0 0 0 0 0 -1 0 0 0 0 0 0 0 0 0 0 0 0 0 0 0 0 0 0 0 0 0 0 0 0 0 0
0 0 0 0 0 0 0 0 0 0 0 0 0 0 0 -3 0 0 0 0 0 0 0 0 0 0 0 0 0 0 0 0 0 0 0 0 0 0 0 0 0 0 0
0 0 0 0 0 0 0 0 0 0 0 0 0 0 -2 0 0 0 0 0 0 0 0 0 0 0 0 0 0 0 0 0 0 0 0 0 0 0 0 0 0 0 0
0 0 0 0 0 0 0 0 0 0 0 0 0 -1 -1 0 0 0 0 0 0 0 0 0 0 0 0 0 0 0 0 0 0 0 0 0 0 0 0 0 0 0 0
Wind_Speed
38 38 38 38 37 38 38 38 38 37 38 36 36 34 32 33 31 30 30 30 24 17 14 10 6 5 5 3 10 24 33 32 34 32 30 29 24 24 21 20 18 14 13
36 36 35 35 36 37 38 38 37 38 36 36 35 33 28 24 27 28 20 15 10 7 5 3 5 6 9 11 11 14 19 28 29 32 27 25 24 21 18 18 17 14 12
34 34 34 34 35 36 35 36 35 35 36 38 38 36 32 30 20 17 14 12 7 12 2 4 7 9 11 10 11 11 12 13 18 26 26 20 17 16 13 14 11 10 11
32 32 33 33 33 32 31 32 35 35 34 38 36 35 36 17 21 15 12 7 9 16 14 8 7 8 10 11 12 12 12 11 11 15 21 25 21 16 14 14 13 12 12
31 31 33 32 31 30 29 28 31 32 32 34 38 29 12 24 10 13 8 8 11 16 16 13 10 8 10 11 12 12 12 11 11 13 15 19 21 14 14 14 13 11 13
30 31 30 31 31 31 30 30 32 25 24 34 37 27 21 15 18 13 11 9 9 13 15 15 13 13 11 8 12 13 12 12 12 13 15 16 19 7 9 5 6 9 15
30 31 30 30 31 32 33 34 34 33 13 8 28 32 36 27 19 15 9 12 7 12 13 14 20 22 20 20 22 21 20 19 18 7 14 17 17 18 12 10 12 11 16
33 31 32 30 31 31 34 31 33 28 23 3 12 24 32 32 27 25 15 7 6 13 20 21 22 21 23 23 24 24 23 22 20 18 16 16 15 16 14 12 10 12 13
31 30 30 28 31 32 34 35 31 23 24 13 18 30 32 30 29 29 28 13 13 14 15 20 24 22 24 24 25 24 23 21 21 22 20 18 17 16 15 12 11 11 13
30 28 27 25 28 31 33 32 23 24 21 22 24 30 32 29 24 25 28 17 16 12 16 23 25 28 28 28 26 23 22 22 21 21 20 20 18 19 19 16 13 14 13
28 25 26 28 24 27 30 27 25 23 22 24 28 26 26 22 17 18 23 28 19 26 28 30 30 30 30 29 28 27 25 22 22 21 21 20 20 20 20 18 15 13 13
28 28 29 29 26 25 28 26 28 30 31 28 29 25 23 19 17 21 23 24 27 29 30 30 30 30 29 29 28 27 26 25 23 23 21 20 20 20 20 18 16 15 15
27 28 29 22 28 25 27 28 31 32 33 31 27 26 23 20 26 26 28 28 28 30 31 31 31 31 30 30 30 29 28 26 25 24 23 23 22 21 21 18 17 17 17
27 28 29 16 27 26 26 26 28 29 25 23 21 22 23 26 28 32 32 33 33 32 31 31 31 30 30 30 30 29 28 27 26 25 24 24 23 23 22 21 20 15 17
25 26 30 18 24 26 24 16 14 15 27 28 29 30 31 32 32 33 34 34 34 33 31 31 32 32 31 31 30 29 29 28 27 26 25 24 23 23 22 22 20 18 16
25 25 29 23 23 21 17 4 17 19 22 23 26 30 33 33 34 34 31 36 35 33 32 33 32 32 32 31 30 28 28 29 28 26 25 24 23 22 22 21 20 18 17
26 24 29 24 21 23 24 25 26 20 16 19 21 26 28 31 35 35 34 32 35 34 33 32 32 33 31 28 27 27 27 27 27 26 25 24 22 21 21 20 19 18 16
23 24 29 27 22 24 27 28 28 30 26 25 21 24 28 32 31 35 35 32 34 34 32 30 28 28 27 27 25 25 24 25 26 26 25 24 21 20 19 19 17 15 16
21 24 25 27 24 25 26 27 28 30 26 28 29 30 32 32 32 32 33 33 32 31 28 26 24 25 28 24 24 22 22 23 26 24 24 21 19 18 17 16 15 15 15
22 25 26 27 26 26 26 28 29 28 29 28 30 32 32 32 33 33 32 31 30 26 21 21 25 28 28 26 23 21 19 19 21 24 22 18 16 15 15 14 13 13 13
20 21 23 28 27 26 26 28 30 30 29 28 30 32 33 33 33 34 33 32 28 21 24 27 28 25 24 23 17 15 14 14 13 7 12 14 13 13 13 13 12 12 12
24 26 24 28 28 26 27 28 30 30 29 26 30 33 34 33 34 34 31 27 24 23 28 29 26 22 22 17 11 9 10 10 8 8 10 11 12 12 12 12 11 11 11
24 25 26 27 27 28 28 29 29 29 29 31 32 33 34 34 34 32 29 20 27 32 29 28 28 23 18 10 8 8 9 10 9 11 12 12 12 13 12 12 11 11 11
25 26 27 27 28 27 28 29 29 29 30 32 32 34 34 34 34 31 26 32 31 27 25 24 23 16 11 5 7 6 9 11 12 14 14 14 15 13 12 13 11 9 12
25 26 26 27 27 27 28 28 28 29 30 31 32 33 34 34 32 33 34 30 31 28 28 27 23 7 1 2 3 5 8 12 14 15 16 15 15 13 13 12 11 11 14
25 26 26 27 27 27 28 28 28 29 30 31 32 32 33 33 35 35 32 29 30 30 27 22 14 5 3 5 4 5 9 12 13 14 14 14 14 14 12 12 10 13 13
Wind_Direction
346 347 349 351 353 353 354 353 356 358 355 356 355 356 358 357 358 356 353 349 349 345 339 320 291 306 263 298 339 316 281 271 269 274 271 271 280 298 298 299 319 329 327
350 352 355 356 357 358 358 358 358 359 3 3 3 6 10 14 10 8 10 6 357 328 346 33 206 208 214 208 205 212 221 262 264 263 270 271 282 292 305 305 307 317 324
356 358 358 358 359 360 3 4 4 7 11 7 6 8 14 16 24 21 20 16 7 286 275 208 205 199 197 186 179 178 183 200 221 264 264 275 289 295 288 304 311 333 317
1 1 360 359 360 2 4 4 5 7 16 14 19 21 14 35 33 34 34 5 317 307 293 265 205 176 179 179 173 173 179 193 198 203 241 257 274 282 279 297 315 320 321
4 4 3 3 3 4 7 11 10 14 19 21 16 36 36 43 18 338 25 16 337 327 321 314 288 262 204 183 170 173 175 184 196 214 222 211 228 272 284 292 308 320 318
8 7 8 7 8 7 6 6 5 22 28 14 6 46 337 48 341 350 0 48 21 352 345 338 326 320 304 219 162 180 181 185 200 207 212 231 167 107 323 348 345 324 306
11 10 10 11 12 6 3 2 356 342 42 46 333 30 4 345 344 348 33 65 20 353 349 349 357 358 353 355 8 11 1 347 348 221 198 293 294 290 320 325 310 312 309
12 13 12 15 12 8 358 12 340 322 310 312 59 32 28 356 345 343 338 49 51 346 350 352 353 351 359 3 9 17 17 11 1 353 346 331 334 330 327 329 330 324 328
16 16 19 20 12 1 349 344 338 317 319 298 55 6 359 349 342 344 342 324 325 331 332 344 355 352 356 357 9 12 9 3 10 17 14 6 1 357 349 355 345 341 321
23 24 24 23 17 358 3 344 324 325 320 328 42 12 4 345 330 334 340 323 321 315 327 342 344 355 357 358 360 346 348 4 1 2 5 5 0 5 359 352 341 337 330
24 29 25 20 27 13 359 342 336 331 327 336 350 338 336 329 318 321 333 343 42 4 348 1 357 356 359 2 1 358 355 358 4 354 352 354 358 355 349 352 351 339 332
27 30 27 26 33 24 2 347 349 353 357 353 353 338 333 325 324 328 332 338 356 23 6 5 356 353 354 359 359 355 355 356 354 356 351 341 340 343 342 347 356 353 348
30 31 31 50 355 23 2 10 7 10 11 0 349 344 336 329 342 337 342 343 344 358 5 359 358 0 360 360 357 356 355 354 352 347 344 344 345 348 346 352 1 1 355
35 34 29 309 7 34 27 29 18 6 349 343 339 340 338 341 343 353 354 359 3 6 9 6 5 6 5 3 1 0 358 355 353 349 345 342 345 345 345 341 341 355 355
39 36 4 313 338 25 38 73 89 86 21 359 353 355 356 355 353 11 12 11 13 14 16 13 11 10 8 6 5 4 3 358 351 344 341 338 337 337 339 337 336 341 349
39 39 11 329 332 327 314 244 67 62 54 53 45 33 20 8 1 5 19 11 10 15 19 16 14 13 10 10 10 17 13 7 2 2 343 332 331 330 328 332 335 339 344
40 42 12 334 324 337 338 339 339 49 68 57 52 40 32 21 11 13 16 20 16 19 18 19 18 10 16 20 20 18 14 9 4 7 358 333 322 320 321 326 326 334 347
45 43 17 346 329 334 354 355 353 11 30 38 48 41 31 18 22 14 14 20 17 21 24 24 24 22 22 17 17 16 14 8 0 355 359 335 314 306 311 316 329 334 342
46 39 29 350 338 341 347 355 13 12 27 25 22 24 19 18 20 22 23 23 21 21 24 26 25 20 14 16 14 15 15 10 352 351 345 304 297 288 290 298 304 324 341
45 36 25 351 357 341 350 348 348 15 19 24 20 17 21 20 20 20 20 19 20 24 28 24 18 14 12 13 19 27 31 31 21 335 346 283 273 265 261 270 272 292 299
44 42 38 12 358 346 347 355 359 3 22 28 24 20 18 18 19 17 17 19 22 24 22 17 15 18 22 24 37 49 57 62 73 156 235 250 244 237 237 236 236 231 229
35 26 35 19 360 346 344 353 3 4 15 28 16 13 13 20 19 18 21 25 25 25 18 16 19 25 26 38 64 81 84 96 123 172 199 211 215 215 212 217 213 212 210
30 24 21 17 2 353 355 355 0 10 15 14 12 13 16 18 19 22 25 26 25 20 22 24 22 30 44 69 101 122 119 124 156 176 184 192 196 194 197 198 196 195 205
25 23 17 9 1 359 359 357 356 9 11 11 14 16 19 21 22 25 29 25 23 32 35 39 42 55 73 115 129 172 150 146 150 161 173 176 174 179 185 181 186 203 181
23 23 20 9 353 4 0 359 4 358 6 11 15 21 22 22 26 27 25 30 31 37 38 42 51 71 96 206 200 204 164 151 154 159 158 162 165 170 169 179 181 178 162
27 26 27 15 358 9 5 4 357 357 3 12 18 24 26 27 27 27 33 40 42 45 53 63 77 69 71 110 129 144 144 147 151 157 161 162 163 163 171 174 176 166 167